Home > Weather > Cork > Past weeks

Flag for Ireland Past Weather in Cork, Ireland — Yesterday and Last 2 Weeks

Now
61 °F

Overcast.


Feels Like: 61 °F
Forecast: 52 / 62 °F
Wind: 7 mph from West

Location: Cork Airport

Current Time: Jun 27, 2016 at 5:54:49 PM

Latest Report: Jun 27, 2016 at 5:00 PM


Visibility: 37 mi

Pressure: 30.14 "Hg

Humidity: 64%

Dew Point: 49 °F

Location of CorkLocation

Past Weather in Cork — Graph

°F

Cork Temperature Yesterday

Maximum temperature yesterday: 70 °F (at 1:00 PM)
Minimum temperature yesterday: 53 °F (at 4:00 AM)
Average temperature yesterday: 59 °F

High & Low Weather Summary for the Past Weeks

 TemperatureHumidityPressure
High70 °F (Jun 26, 1:00 PM)100% (Jun 13, 5:00 AM)30.24 "Hg (Jun 13, 5:00 AM)
Low48 °F (Jun 17, 6:00 AM)52% (Jun 27, 2:00 PM)29.41 "Hg (Jun 14, 7:00 PM)
Average57 °F83%29.92 "Hg
* Reported Jun 12 4:00 PM — Jun 27 4:00 PM, Cork, Weather by CustomWeather, © 2016

Note: Actual official high and low records may vary slightly from our data, if they occured in-between our weather recording intervals... More about our weather records

Advertising

Cork Weather History for the Previous 24 Hours

Scroll right to see more
 ConditionsComfort  
Time TempWeatherWind HumidityBarometerVisibility
4:00 PM
Mon, Jun 27
62 °FOvercast.7 mph60%30.14 "Hg40 mi
3:00 PM64 °FOvercast.8 mph54%30.14 "Hg40 mi
2:00 PM63 °FOvercast.7 mph52%30.15 "Hg37 mi
1:00 PM63 °FPartly sunny.6 mph58%30.16 "Hg37 mi
12:00 PM61 °FPartly sunny.7 mph57%30.16 "Hg37 mi
11:00 AM60 °FPartly sunny.6 mph66%30.17 "Hg31 mi
10:00 AM57 °FPartly sunny.6 mph70%30.17 "Hg31 mi
9:00 AM57 °FPartly sunny.6 mph70%30.18 "Hg28 mi
8:00 AM54 °FPartly sunny.6 mph78%30.16 "Hg25 mi
7:00 AM52 °FPartly sunny.2 mph83%30.16 "Hg22 mi
6:00 AM52 °FOvercast.3 mph83%30.16 "Hg22 mi
5:00 AM52 °FPassing clouds.2 mph84%30.15 "Hg22 mi
4:00 AM54 °FPassing clouds.3 mph82%30.15 "Hg25 mi
3:00 AM55 °FOvercast.5 mph88%30.14 "Hg25 mi
2:00 AM56 °FOvercast.7 mph88%30.12 "Hg25 mi
1:00 AM56 °FOvercast.6 mph87%30.13 "Hg25 mi
12:00 AM56 °FOvercast.5 mph85%30.12 "Hg25 mi
11:00 PM
Sun, Jun 26
57 °FOvercast.9 mph85%30.11 "Hg28 mi
10:00 PM58 °FOvercast.8 mph84%30.10 "Hg25 mi
9:00 PM59 °FOvercast.12 mph81%30.08 "Hg31 mi
8:00 PM60 °FPartly sunny.10 mph85%30.06 "Hg25 mi
7:00 PM63 °FOvercast.8 mph78%30.06 "Hg31 mi
Weather by CustomWeather, © 2016

See weather overviewHow to use our weather pages